Regional Weather Roundup
Issued by NWS State College, PA

Home | Current Version | Previous Version | Graphics & Text | Print | Product List | Glossary Off
Versions: 1 2 3 4 5 6 7 8 9 10 11 12 13 14 15 16 17 18 19 20 21 22 23 24 25 26 27 28 29 30 31 32 33 34 35 36 37 38 39 40 41 42 43 44 45 46 47 48 49 50

903
ASUS41 KCTP 221510
RWRCTP

REGIONAL WEATHER ROUNDUP
NATIONAL WEATHER SERVICE STATE COLLEGE PA
1100 AM EDT SUN OCT 22 2017

Note: "fair" indicates few or no clouds below 12,000 feet with no
significant weather and/or obstructions to visibility.

* = STATION THAT DOES NOT REPORT PRECIPITATION /E.G. RAIN...SNOW...ETC/
    THUNDER OR FOG.

PAZ002>004-007>009-013>016-020>023-029>032-221600-
WESTERN PENNSYLVANIA

CITY           SKY/WX    TMP DP  RH WIND       PRES   REMARKS
ERIE           SUNNY     66  51  58 S15       30.25S
MEADVILLE      CLOUDY    64  53  67 VRB7      30.29S
FRANKLIN*      CLOUDY    63  51  65 S10       30.31S
NEW CASTLE     FAIR      64  54  69 VRB3      30.29F
BEAVER COUNTY  NOT AVBL
BUTLER*        SUNNY     64  52  64 SE7       30.31F
PITTSBURGH INT PTSUNNY   65  53  65 S7        30.30F
PITTSBURGH     SUNNY     65  50  58 SE8       30.30F
INDIANA*       SUNNY     68  54  60 VRB6      30.34F
LATROBE        SUNNY     68  52  56 E5        30.32F
WASHINGTON CO* SUNNY     67  54  63 SE6       30.33
$$

PAZ004>006-010>012-017>019-024>028-033>037-041-042-045-046-049>053-221600-
CENTRAL PENNSYLVANIA

CITY           SKY/WX    TMP DP  RH WIND       PRES   REMARKS
BRADFORD       SUNNY     65  49  56 S6        30.33F
DUBOIS         SUNNY     63  47  55 VRB7      30.32F
CLEARFIELD     SUNNY     62  47  57 N5        30.35F
JOHNSTOWN      SUNNY     64  51  62 S9        30.35F
ALTOONA        SUNNY     64  49  57 CALM      30.37F
STATE COLLEGE  NOT AVBL
WILLIAMSPORT   SUNNY     57  48  72 E3        30.37F
SELINSGROVE    SUNNY     57  51  80 CALM      30.39F
FT INDIANTOWN  SUNNY     64  46  53 NE3       30.39F
CAPITAL CITY   SUNNY     63  46  54 E6        30.39S
HARRISBURG     PTSUNNY   63  50  62 E5        30.38F
YORK           SUNNY     64  51  62 E3        30.39
$$

PAZ038>040-043-044-047-048-054-055-060>062-067>071-221600-
EASTERN PENNSYLVANIA

CITY           SKY/WX    TMP DP  RH WIND       PRES   REMARKS
SCRANTON       SUNNY     63  46  54 CALM      30.39S
MOUNT POCONO   SUNNY     66  42  41 SW9       30.41F
ALLENTOWN      SUNNY     62  48  60 NE3       30.41S
QUAKERTOWN*    SUNNY     64  48  55 CALM      30.42S
READING        SUNNY     61  54  77 CALM      30.39F
LANCASTER      SUNNY     64  54  69 E3        30.40F
COATESVILLE    SUNNY     66  50  55 VRB5      30.42S
POTTSTOWN      SUNNY     62  49  62 CALM      30.42F
BLUE BELL      SUNNY     64  48  55 CALM      30.43S
DOYLESTOWN     SUNNY     67  47  48 VRB3      30.40S
WILLOW GROVE   NOT AVBL
NORTH PHILA    SUNNY     67  52  58 E5        30.43S
PHILADELPHIA   PTSUNNY   63  55  75 E3        30.42S
$$




USA.gov is the U.S. government's official web portal to all federal, state and local government web resources and services.